Time,TemperatureF,DewpointF,PressureIn,WindDirection,WindDirectionDegrees,WindSpeedMPH,WindSpeedGustMPH,Humidity,HourlyPrecipIn,Conditions,Clouds,dailyrainin,SoftwareType,DateUTC
2013-04-27 00:06:00,43.2,40.0,30.24,West,275,0.0,0.0,87,0.00,,,0.00,weatherlink.com 1.10,2013-04-27 07:06:00,
2013-04-27 00:21:00,42.6,39.0,30.25,West,274,0.0,0.0,88,0.00,,,0.00,weatherlink.com 1.10,2013-04-27 07:21:00,
2013-04-27 00:36:00,42.2,40.0,30.25,West,274,0.0,0.0,90,0.00,,,0.00,weatherlink.com 1.10,2013-04-27 07:36:00,
2013-04-27 00:51:00,41.6,39.0,30.25,West,274,0.0,0.0,91,0.00,,,0.00,weatherlink.com 1.10,2013-04-27 07:51:00,
2013-04-27 01:06:00,41.2,39.0,30.24,West,274,0.0,0.0,91,0.00,,,0.00,weatherlink.com 1.10,2013-04-27 08:06:00,
2013-04-27 01:21:00,40.6,39.0,30.24,West,274,0.0,0.0,92,0.00,,,0.00,weatherlink.com 1.10,2013-04-27 08:21:00,
2013-04-27 01:36:00,40.3,39.0,30.24,West,274,0.0,0.0,93,0.00,,,0.00,weatherlink.com 1.10,2013-04-27 08:36:00,
2013-04-27 01:51:00,39.8,38.0,30.24,West,274,0.0,0.0,94,0.00,,,0.00,weatherlink.com 1.10,2013-04-27 08:51:00,
2013-04-27 02:06:00,39.9,38.0,30.25,West,274,0.0,0.0,94,0.00,,,0.00,weatherlink.com 1.10,2013-04-27 09:06:00,
2013-04-27 02:21:00,39.7,38.0,30.24,West,274,0.0,0.0,94,0.00,,,0.00,weatherlink.com 1.10,2013-04-27 09:21:00,
2013-04-27 02:36:00,39.5,38.0,30.23,West,274,0.0,0.0,94,0.00,,,0.00,weatherlink.com 1.10,2013-04-27 09:36:00,
2013-04-27 02:51:00,39.3,38.0,30.23,West,275,0.0,0.0,94,0.00,,,0.00,weatherlink.com 1.10,2013-04-27 09:51:00,
2013-04-27 03:06:00,38.7,37.0,30.23,West,275,0.0,0.0,94,0.00,,,0.00,weatherlink.com 1.10,2013-04-27 10:06:00,
2013-04-27 03:21:00,38.1,37.0,30.23,West,274,0.0,0.0,95,0.00,,,0.00,weatherlink.com 1.10,2013-04-27 10:21:00,
2013-04-27 03:36:00,37.7,36.0,30.23,West,275,0.0,0.0,95,0.00,,,0.00,weatherlink.com 1.10,2013-04-27 10:36:00,
2013-04-27 03:51:00,37.8,37.0,30.22,West,274,0.0,0.0,96,0.00,,,0.00,weatherlink.com 1.10,2013-04-27 10:51:00,
2013-04-27 04:06:00,38.1,37.0,30.22,West,274,0.0,0.0,96,0.00,,,0.00,weatherlink.com 1.10,2013-04-27 11:06:00,
2013-04-27 04:21:00,37.9,37.0,30.22,West,274,0.0,0.0,96,0.00,,,0.00,weatherlink.com 1.10,2013-04-27 11:21:00,
2013-04-27 04:37:00,37.4,36.0,30.22,West,275,0.0,0.0,96,0.00,,,0.00,weatherlink.com 1.10,2013-04-27 11:37:00,
2013-04-27 04:52:00,37.1,36.0,30.23,West,276,0.0,0.0,96,0.00,,,0.00,weatherlink.com 1.10,2013-04-27 11:52:00,
2013-04-27 05:07:00,36.7,36.0,30.23,West,276,0.0,0.0,96,0.00,,,0.00,weatherlink.com 1.10,2013-04-27 12:07:00,
2013-04-27 05:22:00,36.6,36.0,30.22,West,276,0.0,0.0,96,0.00,,,0.00,weatherlink.com 1.10,2013-04-27 12:22:00,
2013-04-27 05:37:00,36.9,36.0,30.22,West,276,0.0,0.0,97,0.00,,,0.00,weatherlink.com 1.10,2013-04-27 12:37:00,
2013-04-27 05:52:00,36.9,36.0,30.23,West,276,0.0,0.0,97,0.00,,,0.00,weatherlink.com 1.10,2013-04-27 12:52:00,
2013-04-27 06:07:00,37.1,36.0,30.23,West,276,0.0,0.0,97,0.00,,,0.00,weatherlink.com 1.10,2013-04-27 13:07:00,
2013-04-27 06:22:00,37.5,37.0,30.23,West,276,0.0,0.0,97,0.00,,,0.00,weatherlink.com 1.10,2013-04-27 13:22:00,
2013-04-27 06:37:00,38.1,37.0,30.23,West,276,0.0,0.0,97,0.00,,,0.00,weatherlink.com 1.10,2013-04-27 13:37:00,
2013-04-27 06:52:00,39.0,38.0,30.23,West,276,0.0,0.0,97,0.00,,,0.00,weatherlink.com 1.10,2013-04-27 13:52:00,
2013-04-27 07:07:00,40.1,39.0,30.23,West,276,0.0,0.0,97,0.00,,,0.00,weatherlink.com 1.10,2013-04-27 14:07:00,
2013-04-27 07:22:00,41.2,41.0,30.24,West,276,0.0,0.0,98,0.00,,,0.00,weatherlink.com 1.10,2013-04-27 14:22:00,
2013-04-27 07:37:00,42.3,42.0,30.24,West,276,0.0,0.0,97,0.00,,,0.00,weatherlink.com 1.10,2013-04-27 14:37:00,
2013-04-27 07:52:00,43.8,42.0,30.24,West,273,0.0,0.0,93,0.00,,,0.00,weatherlink.com 1.10,2013-04-27 14:52:00,
2013-04-27 08:07:00,45.1,43.0,30.25,West,273,0.0,0.0,91,0.00,,,0.00,weatherlink.com 1.10,2013-04-27 15:07:00,
2013-04-27 08:22:00,46.9,44.0,30.25,West,274,0.0,0.0,90,0.00,,,0.00,weatherlink.com 1.10,2013-04-27 15:22:00,
2013-04-27 08:37:00,48.5,43.0,30.25,SW,222,0.0,1.0,82,0.00,,,0.00,weatherlink.com 1.10,2013-04-27 15:37:00,
2013-04-27 08:52:00,49.7,44.0,30.25,WSW,241,0.0,2.0,80,0.00,,,0.00,weatherlink.com 1.10,2013-04-27 15:52:00,
2013-04-27 09:07:00,51.0,45.0,30.25,NE,46,0.0,0.0,79,0.00,,,0.00,weatherlink.com 1.10,2013-04-27 16:07:00,
2013-04-27 09:22:00,53.5,45.0,30.24,NE,36,0.0,1.0,72,0.00,,,0.00,weatherlink.com 1.10,2013-04-27 16:22:00,
2013-04-27 09:37:00,54.6,43.0,30.24,South,186,0.0,6.0,65,0.00,,,0.00,weatherlink.com 1.10,2013-04-27 16:37:00,
2013-04-27 09:52:00,55.5,45.0,30.25,WSW,243,0.0,2.0,69,0.00,,,0.00,weatherlink.com 1.10,2013-04-27 16:52:00,
2013-04-27 10:07:00,55.9,42.0,30.25,WSW,248,0.0,4.0,61,0.00,,,0.00,weatherlink.com 1.10,2013-04-27 17:07:00,
2013-04-27 10:22:00,56.8,43.0,30.25,SW,216,0.0,5.0,60,0.00,,,0.00,weatherlink.com 1.10,2013-04-27 17:22:00,
2013-04-27 10:37:00,57.6,44.0,30.25,SW,221,0.0,1.0,60,0.00,,,0.00,weatherlink.com 1.10,2013-04-27 17:37:00,
2013-04-27 10:52:00,58.3,43.0,30.25,SW,222,0.0,4.0,57,0.00,,,0.00,weatherlink.com 1.10,2013-04-27 17:52:00,
2013-04-27 11:08:00,59.2,44.0,30.25,SSW,202,0.0,2.0,58,0.00,,,0.00,weatherlink.com 1.10,2013-04-27 18:08:00,
2013-04-27 11:23:00,59.2,45.0,30.25,WSW,239,0.0,-999.0,59,-99.99,,,0.00,weatherlink.com 1.10,2013-04-27 18:23:00,
2013-04-27 11:38:00,59.0,44.0,30.26,WSW,243,0.0,3.0,57,0.00,,,0.00,weatherlink.com 1.10,2013-04-27 18:38:00,
2013-04-27 11:53:00,58.2,44.0,30.26,SW,231,0.0,4.0,60,0.00,,,0.00,weatherlink.com 1.10,2013-04-27 18:53:00,
2013-04-27 12:08:00,57.6,44.0,30.26,South,172,0.0,5.0,61,0.00,,,0.00,weatherlink.com 1.10,2013-04-27 19:08:00,
2013-04-27 12:23:00,57.4,45.0,30.26,SW,224,0.0,0.0,64,0.00,,,0.00,weatherlink.com 1.10,2013-04-27 19:23:00,
2013-04-27 12:38:00,57.3,45.0,30.26,SSE,159,0.0,2.0,63,0.00,,,0.00,weatherlink.com 1.10,2013-04-27 19:38:00,
2013-04-27 12:53:00,57.0,44.0,30.26,West,268,0.0,3.0,62,0.00,,,0.00,weatherlink.com 1.10,2013-04-27 19:53:00,
2013-04-27 13:08:00,57.4,43.0,30.26,SW,223,0.0,1.0,60,0.00,,,0.00,weatherlink.com 1.10,2013-04-27 20:08:00,
2013-04-27 13:23:00,57.8,44.0,30.26,WSW,243,0.0,0.0,61,0.00,,,0.00,weatherlink.com 1.10,2013-04-27 20:23:00,
2013-04-27 13:38:00,58.1,44.0,30.26,ESE,120,0.0,1.0,59,0.00,,,0.00,weatherlink.com 1.10,2013-04-27 20:38:00,
2013-04-27 13:53:00,58.0,44.0,30.26,SSW,193,0.0,0.0,59,0.00,,,0.00,weatherlink.com 1.10,2013-04-27 20:53:00,
2013-04-27 14:08:00,57.8,44.0,30.26,SSW,206,0.0,1.0,60,0.00,,,0.00,weatherlink.com 1.10,2013-04-27 21:08:00,
2013-04-27 14:23:00,57.7,43.0,30.27,ENE,73,0.0,0.0,59,0.00,,,0.00,weatherlink.com 1.10,2013-04-27 21:23:00,
2013-04-27 14:38:00,57.6,44.0,30.27,SW,224,0.0,2.0,60,0.00,,,0.00,weatherlink.com 1.10,2013-04-27 21:38:00,
2013-04-27 14:53:00,56.7,45.0,30.27,WSW,243,0.0,1.0,64,0.00,,,0.00,weatherlink.com 1.10,2013-04-27 21:53:00,
2013-04-27 15:08:00,55.7,46.0,30.27,WNW,284,0.0,4.0,69,0.00,,,0.00,weatherlink.com 1.10,2013-04-27 22:08:00,
2013-04-27 15:23:00,54.5,47.0,30.27,NW,314,0.0,4.0,76,0.00,,,0.00,weatherlink.com 1.10,2013-04-27 22:23:00,
2013-04-27 15:38:00,54.4,48.0,30.26,West,273,0.0,0.0,80,0.00,,,0.00,weatherlink.com 1.10,2013-04-27 22:38:00,
2013-04-27 15:53:00,54.2,49.0,30.25,West,262,0.0,0.0,82,0.00,,,0.00,weatherlink.com 1.10,2013-04-27 22:53:00,
2013-04-27 16:08:00,53.9,49.0,30.25,SE,131,0.0,0.0,83,0.00,,,0.00,weatherlink.com 1.10,2013-04-27 23:08:00,
2013-04-27 16:23:00,53.2,49.0,30.25,SSE,148,0.0,0.0,85,0.00,,,0.00,weatherlink.com 1.10,2013-04-27 23:23:00,
2013-04-27 16:38:00,52.7,49.0,30.26,SE,139,0.0,0.0,86,0.01,,,0.01,weatherlink.com 1.10,2013-04-27 23:38:00,
2013-04-27 16:53:00,52.2,49.0,30.26,WSW,246,0.0,0.0,87,0.01,,,0.01,weatherlink.com 1.10,2013-04-27 23:53:00,
2013-04-27 17:08:00,52.0,50.0,30.26,WSW,246,0.0,0.0,91,0.01,,,0.01,weatherlink.com 1.10,2013-04-28 00:08:00,
2013-04-27 17:23:00,51.7,49.0,30.25,WSW,246,0.0,0.0,91,0.02,,,0.02,weatherlink.com 1.10,2013-04-28 00:23:00,
2013-04-27 17:38:00,51.8,50.0,30.24,WSW,246,0.0,0.0,92,0.01,,,0.02,weatherlink.com 1.10,2013-04-28 00:38:00,
2013-04-27 17:53:00,51.6,49.0,30.25,NW,312,0.0,0.0,92,0.02,,,0.03,weatherlink.com 1.10,2013-04-28 00:53:00,
2013-04-27 18:08:00,51.9,49.0,30.25,South,169,0.0,0.0,91,0.02,,,0.03,weatherlink.com 1.10,2013-04-28 01:08:00,
2013-04-27 18:23:00,52.2,50.0,30.25,SW,230,0.0,0.0,91,0.01,,,0.03,weatherlink.com 1.10,2013-04-28 01:23:00,
2013-04-27 18:38:00,52.3,50.0,30.25,SSE,151,0.0,0.0,92,0.01,,,0.03,weatherlink.com 1.10,2013-04-28 01:38:00,
2013-04-27 18:53:00,52.0,50.0,30.25,ENE,60,0.0,0.0,92,0.00,,,0.03,weatherlink.com 1.10,2013-04-28 01:53:00,
2013-04-27 19:08:00,51.7,50.0,30.25,ENE,60,0.0,0.0,92,0.00,,,0.03,weatherlink.com 1.10,2013-04-28 02:08:00,
2013-04-27 19:23:00,51.4,50.0,30.25,ENE,60,0.0,0.0,93,0.00,,,0.03,weatherlink.com 1.10,2013-04-28 02:23:00,
2013-04-27 19:38:00,51.2,49.0,30.25,WNW,293,0.0,0.0,93,0.00,,,0.03,weatherlink.com 1.10,2013-04-28 02:38:00,
2013-04-27 19:53:00,51.0,49.0,30.25,WNW,293,0.0,0.0,94,0.00,,,0.03,weatherlink.com 1.10,2013-04-28 02:53:00,
2013-04-27 20:08:00,50.7,49.0,30.25,WNW,293,0.0,0.0,94,0.00,,,0.03,weatherlink.com 1.10,2013-04-28 03:08:00,
2013-04-27 20:23:00,50.4,49.0,30.25,WNW,293,0.0,0.0,94,0.00,,,0.03,weatherlink.com 1.10,2013-04-28 03:23:00,
2013-04-27 20:38:00,50.1,49.0,30.25,WNW,293,0.0,0.0,94,0.00,,,0.03,weatherlink.com 1.10,2013-04-28 03:38:00,
2013-04-27 20:53:00,49.7,48.0,30.26,WNW,293,0.0,0.0,95,0.00,,,0.03,weatherlink.com 1.10,2013-04-28 03:53:00,
2013-04-27 21:08:00,49.5,48.0,30.26,WNW,293,0.0,0.0,95,0.00,,,0.03,weatherlink.com 1.10,2013-04-28 04:08:00,
2013-04-27 21:23:00,49.2,48.0,30.27,WNW,293,0.0,0.0,96,0.00,,,0.03,weatherlink.com 1.10,2013-04-28 04:23:00,
2013-04-27 21:38:00,49.0,48.0,30.27,WNW,293,0.0,0.0,96,0.00,,,0.03,weatherlink.com 1.10,2013-04-28 04:38:00,
2013-04-27 21:53:00,48.8,48.0,30.27,WNW,293,0.0,0.0,96,0.00,,,0.03,weatherlink.com 1.10,2013-04-28 04:53:00,
2013-04-27 22:08:00,48.7,48.0,30.27,WNW,293,0.0,0.0,96,0.00,,,0.03,weatherlink.com 1.10,2013-04-28 05:08:00,
2013-04-27 22:23:00,48.4,47.0,30.27,WNW,293,0.0,0.0,96,0.00,,,0.03,weatherlink.com 1.10,2013-04-28 05:23:00,
2013-04-27 22:38:00,48.3,47.0,30.27,WNW,293,0.0,0.0,96,0.00,,,0.03,weatherlink.com 1.10,2013-04-28 05:38:00,
2013-04-27 22:53:00,48.1,47.0,30.26,WNW,293,0.0,0.0,96,0.00,,,0.03,weatherlink.com 1.10,2013-04-28 05:53:00,
2013-04-27 23:08:00,48.0,47.0,30.26,WNW,294,0.0,0.0,96,0.00,,,0.03,weatherlink.com 1.10,2013-04-28 06:08:00,
2013-04-27 23:23:00,47.9,47.0,30.26,WNW,294,0.0,0.0,96,0.00,,,0.03,weatherlink.com 1.10,2013-04-28 06:23:00,
2013-04-27 23:38:00,47.7,47.0,30.25,WNW,294,0.0,0.0,96,0.00,,,0.03,weatherlink.com 1.10,2013-04-28 06:38:00,
2013-04-27 23:53:00,47.5,47.0,30.25,WNW,294,0.0,0.0,97,0.00,,,0.03,weatherlink.com 1.10,2013-04-28 06:53:00,